Regional Weather Roundup
Issued by NWS

Home | Current Version | Previous Version | Graphics & Text | Print | Product List | Glossary On
Versions: 1 2 3 4 5 6 7 8 9 10 11 12 13 14 15 16 17 18 19 20 21 22 23 24 25 26 27 28 29 30 31 32 33 34 35 36 37 38 39 40 41 42 43 44 45 46 47 48 49 50
000
ASUS45 KBOU 281807
RWRCO

WEATHER ROUNDUP FOR COLORADO
NATIONAL WEATHER SERVICE DENVER/BOULDER CO
1200 PM MDT SUN AUG 28 2016

NOTE: "FAIR" INDICATES FEW OR NO CLOUDS BELOW 12000 FEET WITH NO
SIGNIFICANT WEATHER AND/OR OBSTRUCTIONS TO VISIBILITY.

COZ001>005-013-030-031-281900-
...NORTHWEST COLORADO...

CITY           SKY/WX    TMP DP  RH WIND       PRES   REMARKS
CRAIG          FAIR      77  37  23 NW6       30.29F
HAYDEN         FAIR      72  36  26 NW5       30.31F
MEEKER         FAIR      73  41  31 VRB6      30.30F
MOUNT WERNER   NOT AVBL
STEAMBOAT SPGS FAIR      70  38  31 W3        30.32F
WALDEN         FAIR      70  28  21 NW5       30.40F
$$

COZ006>008-011-281900-
...WEST CENTRAL VALLEYS...

CITY           SKY/WX    TMP DP  RH WIND       PRES   REMARKS
GRAND JUNCTION CLOUDY    63  56  78 S6        30.27S
MONTROSE       FAIR      71  45  39 NW6       30.31F
EAGLE          MOSUNNY   68  41  37 CALM      30.34F
RIFLE          FAIR      68  47  46 CALM      30.29F
DELTA          NOT AVBL
NUCLA          FAIR     N/A N/A N/A NW5       30.37F
$$

COZ017>023-064>068-281900-
...SOUTHWEST COLORADO...

CITY           SKY/WX    TMP DP  RH WIND       PRES   REMARKS
DURANGO        FAIR      68  43  40 CALM      30.33F
CORTEZ         PTSUNNY   65  52  62 S10       30.31S
PAGOSA SPRINGS FAIR      64  34  32 SW3       30.39F
TELLURIDE      FAIR      59  44  59 W7        30.48F
WOLF CREEK PAS FAIR      46  32  57 SW6G16    30.64S
$$

COZ009-010-012-014-032>034-037-058>063-281900-
...CENTRAL COLORADO...

CITY           SKY/WX    TMP DP  RH WIND       PRES   REMARKS
ASPEN          FAIR      66  43  43 N8        30.39F
BUENA VISTA    FAIR      65  39  37 SW6       30.38F
COPPER MTN     DRIZZLE   45  36  70 E7        30.65S
BERTHOUD PASS  CLOUDY    39  28  65 N9G20     30.67S
COTTONWOOD PAS FAIR      63  36  36 NE3       30.51S
GUNNISON       FAIR      61  43  51 CALM      30.42F
KREMMLING      FAIR      70  32  24 CALM      30.37F
LEADVILLE      CLOUDY    51  43  74 N5        30.51F
MONARCH PASS   PTSUNNY   46  37  71 CALM      30.73S
SALIDA         FAIR      69  38  32 CALM      30.43F
SUNLIGHT       PTSUNNY   55  41  58 CALM      30.61R
WILKERSON PASS CLOUDY    52  36  54 CALM      30.61S
$$

COZ069>075-281900-
...SAN LUIS VALLEY/SANGRE DE CRISTO MOUNTAINS...

CITY           SKY/WX    TMP DP  RH WIND       PRES   REMARKS
ALAMOSA        FAIR      67  41  38 N6        30.36F
LA VETA PASS   FAIR      59  34  38 S8G18     30.51S
SAGUACHE       FAIR      64  41  42 SE5       30.40S
$$

COZ035-036-038>040-281900-
...NORTHERN COLORADO FRONT RANGE...

CITY           SKY/WX    TMP DP  RH WIND       PRES   REMARKS
DENVER INTL AP PTSUNNY   82  33  17 N12       30.18F
DMNS CITY PARK   N/A     83  33  16 CALM      30.18F
AURORA         MOSUNNY   80  38  21 N6        30.21S
FRONT RANGE AP MOSUNNY   82  34  17 N9G16     30.20S
ERIE MUNI ARPT FAIR      84  29  13 N6        30.16F
BOULDER MUN AP FAIR      82  34  17 E3        30.17F
CENTENNIAL     PTSUNNY   79  33  19 NW6       30.22S
BROOMFIELD     MOSUNNY   81  37  21 E8        30.21S
FORT COLLINS   FAIR      82  36  18 NW7       30.15F
LONGMONT       FAIR      84  36  17 CALM      30.17F
$$

COZ041-046-047-076>085-087-088-281900-
...PIKES PEAK/PALMER DIVIDE AND SOUTHERN FOOTHILLS...

CITY           SKY/WX    TMP DP  RH WIND       PRES   REMARKS
COLO. SPRINGS  PTSUNNY   78  40  25 VRB3      30.23F
A. F. ACADEMY  FAIR      78  39  24 VRB5      30.23F
SCHRIEVER AFB  NOT AVBL
ELLICOTT       NOT AVBL
FALCON         FAIR      78  36  21 E3        30.28F
FORT CARSON    FAIR      79  42  27 VRB3      30.19F
LIMON          FAIR      83  41  22 MISG      30.18S
MONUMENT HILL  FAIR      70  37  30 N7        30.31S
TRINIDAD       FAIR      80  39  23 N6        30.20F
$$

COZ042>045-048>051-090-091-281900-
...NORTHEAST COLORADO...

CITY           SKY/WX    TMP DP  RH WIND       PRES   REMARKS
GREELEY ARPT   FAIR      79  45  29 NW7       30.16F
AKRON          FAIR      82  46  28 MISG      30.14S
BURLINGTON     FAIR      81  53  37 SE13      30.15S
WRAY           FAIR      88  50  27 E9        30.10F
STERLING       FAIR      84  55  37 S6        30.10S
HOLYOKE        FAIR      86  54  32 S6        30.11F
FORT MORGAN    FAIR      83  46  27 SE3       30.14F
$$

COZ086-089-092>099-281900-
...SOUTHEAST COLORADO...

CITY           SKY/WX    TMP DP  RH WIND       PRES   REMARKS
PUEBLO         FAIR      84  47  27 W6        30.12F
LA JUNTA       FAIR      83  50  31 NW6       30.11F
LAMAR          FAIR      84  57  39 NE6       30.08F
SPRINGFIELD      N/A     77  59  53 SW9       30.13F
$$



USA.gov is the U.S. government's official web portal to all federal, state and local government web resources and services.